Time,TemperatureF,DewpointF,PressureIn,WindDirection,WindDirectionDegrees,WindSpeedMPH,WindSpeedGustMPH,Humidity,HourlyPrecipIn,Conditions,Clouds,dailyrainin,SoftwareType,DateUTC
2013-12-10 00:00:00,47.8,47.8,30.05,North,360,0.0,0.0,100,0.00,,OVC055,1.30,VWS V14.01,2013-12-10 05:00:00,
2013-12-10 00:02:00,47.7,47.7,30.05,North,360,0.0,0.0,100,0.00,,OVC055,0.00,VWS V14.01,2013-12-10 05:02:00,
2013-12-10 00:07:00,47.7,47.7,30.04,North,360,0.0,0.0,100,0.00,,OVC055,0.00,VWS V14.01,2013-12-10 05:07:00,
2013-12-10 00:12:00,47.7,47.7,30.04,North,360,0.0,0.0,100,0.00,,OVC055,0.00,VWS V14.01,2013-12-10 05:12:00,
2013-12-10 00:17:00,47.7,47.7,30.04,North,360,0.0,0.0,100,0.00,,OVC055,0.00,VWS V14.01,2013-12-10 05:17:00,
2013-12-10 00:22:00,47.7,47.7,30.04,North,360,0.0,0.0,100,0.00,,OVC055,0.00,VWS V14.01,2013-12-10 05:22:00,
2013-12-10 00:27:00,47.7,47.7,30.03,North,360,0.0,0.0,100,0.00,,OVC055,0.00,VWS V14.01,2013-12-10 05:27:00,
2013-12-10 00:30:00,47.7,47.7,30.03,North,360,0.0,0.0,100,0.00,,OVC055,0.00,VWS V14.01,2013-12-10 05:30:00,
2013-12-10 00:32:00,47.7,47.7,30.03,North,360,0.0,0.0,100,0.00,,OVC055,0.00,VWS V14.01,2013-12-10 05:32:00,
2013-12-10 00:37:00,47.7,47.7,30.03,North,360,0.0,0.0,100,0.00,,OVC055,0.00,VWS V14.01,2013-12-10 05:37:00,
2013-12-10 00:42:00,47.7,47.7,30.03,North,360,0.0,0.0,100,0.00,,OVC055,0.00,VWS V14.01,2013-12-10 05:42:00,
2013-12-10 00:47:00,47.7,47.7,30.03,North,360,0.0,0.0,100,0.00,,OVC055,0.00,VWS V14.01,2013-12-10 05:47:00,
2013-12-10 00:52:00,47.7,47.7,30.02,North,360,0.0,0.0,100,0.00,,OVC055,0.00,VWS V14.01,2013-12-10 05:52:00,
2013-12-10 00:57:00,47.7,47.7,30.02,North,360,0.0,0.0,100,0.00,,OVC055,0.00,VWS V14.01,2013-12-10 05:57:00,
2013-12-10 01:00:00,47.7,47.7,30.02,North,360,0.0,0.0,100,0.00,,OVC055,0.00,VWS V14.01,2013-12-10 06:00:00,
2013-12-10 01:02:00,47.7,47.7,30.02,North,360,0.0,0.0,100,0.00,,OVC055,0.00,VWS V14.01,2013-12-10 06:02:00,
2013-12-10 01:07:00,47.7,47.7,30.01,North,360,0.0,0.0,100,0.00,,OVC055,0.00,VWS V14.01,2013-12-10 06:07:00,
2013-12-10 01:12:00,47.7,47.7,30.01,North,360,0.0,0.0,100,0.00,,OVC055,0.00,VWS V14.01,2013-12-10 06:12:00,
2013-12-10 01:17:00,47.8,47.8,30.01,North,360,0.0,0.0,100,0.00,,OVC055,0.00,VWS V14.01,2013-12-10 06:17:00,
2013-12-10 01:22:00,47.8,47.8,30.00,North,360,0.0,0.0,100,0.00,,OVC055,0.00,VWS V14.01,2013-12-10 06:22:00,
2013-12-10 01:27:00,47.8,47.8,30.00,North,360,0.0,1.0,100,0.00,,OVC055,0.00,VWS V14.01,2013-12-10 06:27:00,
2013-12-10 01:30:00,47.9,47.9,30.00,North,360,0.0,1.0,100,0.00,,OVC055,0.00,VWS V14.01,2013-12-10 06:30:00,
2013-12-10 01:32:00,47.9,47.9,30.00,North,360,0.0,0.0,100,0.00,,OVC055,0.00,VWS V14.01,2013-12-10 06:32:00,
2013-12-10 01:37:00,47.9,47.9,30.00,North,360,0.0,0.0,100,0.00,,OVC055,0.00,VWS V14.01,2013-12-10 06:37:00,
2013-12-10 01:42:00,47.9,47.9,29.99,North,360,0.0,0.0,100,0.00,,OVC055,0.00,VWS V14.01,2013-12-10 06:42:00,
2013-12-10 01:47:00,47.9,47.9,29.99,North,360,0.0,0.0,100,0.00,,OVC055,0.00,VWS V14.01,2013-12-10 06:47:00,
2013-12-10 01:52:00,48.0,48.0,29.98,North,360,0.0,0.0,100,0.00,,OVC055,0.00,VWS V14.01,2013-12-10 06:52:00,
2013-12-10 01:57:00,48.0,48.0,29.98,North,360,0.0,0.0,100,0.00,,OVC055,0.00,VWS V14.01,2013-12-10 06:57:00,
2013-12-10 02:00:00,48.0,48.0,29.98,North,360,0.0,0.0,100,0.00,,OVC055,0.00,VWS V14.01,2013-12-10 07:00:00,
2013-12-10 02:02:00,48.0,48.0,29.98,North,360,1.0,1.0,100,0.00,,OVC055,0.00,VWS V14.01,2013-12-10 07:02:00,
2013-12-10 02:07:00,47.9,47.9,29.98,North,360,0.0,1.0,100,0.00,,OVC055,0.00,VWS V14.01,2013-12-10 07:07:00,
2013-12-10 02:12:00,48.0,48.0,29.98,North,360,0.0,1.0,100,0.00,,OVC055,0.00,VWS V14.01,2013-12-10 07:12:00,
2013-12-10 02:17:00,48.0,48.0,29.97,North,360,1.0,1.0,100,0.00,,OVC055,0.00,VWS V14.01,2013-12-10 07:17:00,
2013-12-10 02:22:00,48.0,48.0,29.98,North,360,0.0,1.0,100,0.00,,OVC055,0.00,VWS V14.01,2013-12-10 07:22:00,
2013-12-10 02:27:00,48.1,48.1,29.98,North,360,0.0,1.0,100,0.01,,OVC055,0.01,VWS V14.01,2013-12-10 07:27:00,
2013-12-10 02:30:00,48.1,48.1,29.98,North,360,0.0,1.0,100,0.01,,OVC055,0.01,VWS V14.01,2013-12-10 07:30:00,
2013-12-10 02:32:00,48.1,48.1,29.98,North,360,0.0,0.0,100,0.02,,OVC055,0.02,VWS V14.01,2013-12-10 07:32:00,
2013-12-10 02:37:00,48.1,48.1,29.98,North,360,0.0,0.0,100,0.02,,OVC055,0.02,VWS V14.01,2013-12-10 07:37:00,
2013-12-10 02:42:00,48.2,48.2,29.98,North,360,0.0,1.0,100,0.02,,OVC055,0.02,VWS V14.01,2013-12-10 07:42:00,
2013-12-10 02:47:00,48.3,48.3,29.98,North,360,0.0,1.0,100,0.03,,OVC055,0.03,VWS V14.01,2013-12-10 07:47:00,
2013-12-10 02:52:00,48.5,48.5,29.98,North,360,0.0,1.0,100,0.04,,OVC055,0.04,VWS V14.01,2013-12-10 07:52:00,
2013-12-10 02:57:00,48.6,48.6,29.98,North,5,0.0,1.0,100,0.04,,OVC055,0.04,VWS V14.01,2013-12-10 07:57:00,
2013-12-10 03:00:00,48.6,48.6,29.98,North,5,0.0,1.0,100,0.04,,OVC055,0.04,VWS V14.01,2013-12-10 08:00:00,
2013-12-10 03:02:00,48.7,48.7,29.98,North,5,0.0,1.0,100,0.04,,OVC055,0.04,VWS V14.01,2013-12-10 08:02:00,
2013-12-10 03:07:00,48.8,48.8,29.98,North,5,0.0,1.0,100,0.04,,OVC055,0.04,VWS V14.01,2013-12-10 08:07:00,
2013-12-10 03:12:00,48.9,48.9,29.98,North,5,0.0,1.0,100,0.05,,OVC055,0.05,VWS V14.01,2013-12-10 08:12:00,
2013-12-10 03:17:00,49.1,49.1,29.97,WSW,255,0.0,3.0,100,0.05,,OVC055,0.05,VWS V14.01,2013-12-10 08:17:00,
2013-12-10 03:22:00,49.2,49.2,29.97,WSW,255,0.0,3.0,100,0.05,,OVC055,0.05,VWS V14.01,2013-12-10 08:22:00,
2013-12-10 03:26:00,49.2,49.2,29.97,WSW,255,0.0,3.0,100,0.05,,OVC055,0.05,VWS V14.01,2013-12-10 08:26:00,
2013-12-10 03:30:00,49.2,49.2,29.97,WSW,255,0.0,3.0,100,0.05,,OVC055,0.05,VWS V14.01,2013-12-10 08:30:00,
2013-12-10 03:31:00,49.2,49.2,29.97,WSW,255,0.0,0.0,100,0.04,,OVC055,0.05,VWS V14.01,2013-12-10 08:31:00,
2013-12-10 03:36:00,49.2,49.2,29.96,WSW,255,0.0,1.0,100,0.04,,OVC055,0.05,VWS V14.01,2013-12-10 08:36:00,
2013-12-10 03:41:00,49.4,49.4,29.96,WSW,256,0.0,1.0,100,0.04,,OVC055,0.05,VWS V14.01,2013-12-10 08:41:00,
2013-12-10 03:46:00,49.5,49.5,29.95,WSW,256,0.0,1.0,100,0.04,,OVC055,0.05,VWS V14.01,2013-12-10 08:46:00,
2013-12-10 03:51:00,49.6,49.6,29.96,WSW,256,0.0,1.0,100,0.04,,OVC055,0.05,VWS V14.01,2013-12-10 08:51:00,
2013-12-10 03:56:00,49.6,49.6,29.96,WSW,256,1.0,1.0,100,0.05,,OVC055,0.06,VWS V14.01,2013-12-10 08:56:00,
2013-12-10 04:00:00,49.7,49.7,29.95,WSW,256,1.0,1.0,100,0.05,,OVC055,0.06,VWS V14.01,2013-12-10 09:00:00,
2013-12-10 04:01:00,49.7,49.7,29.95,WSW,256,0.0,1.0,100,0.02,,OVC055,0.06,VWS V14.01,2013-12-10 09:01:00,
2013-12-10 04:04:00,49.7,49.7,29.95,WSW,256,0.0,1.0,100,0.02,,OVC055,0.06,VWS V14.01,2013-12-10 09:04:00,
2013-12-10 04:09:00,49.9,49.9,29.94,WSW,256,1.0,1.0,100,0.02,,OVC055,0.06,VWS V14.01,2013-12-10 09:09:00,
2013-12-10 04:14:00,49.9,49.9,29.94,WSW,253,0.0,2.0,100,0.02,,OVC055,0.06,VWS V14.01,2013-12-10 09:14:00,
2013-12-10 04:19:00,50.0,50.0,29.94,WSW,253,0.0,2.0,100,0.02,,OVC055,0.06,VWS V14.01,2013-12-10 09:19:00,
2013-12-10 04:24:00,50.1,50.1,29.94,WSW,254,0.0,2.0,100,0.02,,OVC055,0.06,VWS V14.01,2013-12-10 09:24:00,
2013-12-10 04:29:00,50.2,50.2,29.93,WSW,254,1.0,1.0,100,0.01,,OVC055,0.06,VWS V14.01,2013-12-10 09:29:00,
2013-12-10 04:30:00,50.2,50.2,29.93,WSW,254,0.0,2.0,100,0.02,,OVC055,0.06,VWS V14.01,2013-12-10 09:30:00,
2013-12-10 04:34:00,50.4,50.4,29.93,NNW,334,0.0,4.0,100,0.01,,OVC055,0.06,VWS V14.01,2013-12-10 09:34:00,
2013-12-10 04:39:00,50.6,50.6,29.93,South,182,0.0,4.0,100,0.01,,OVC055,0.06,VWS V14.01,2013-12-10 09:39:00,
2013-12-10 04:44:00,50.7,50.7,29.93,South,182,0.0,4.0,100,0.01,,OVC055,0.06,VWS V14.01,2013-12-10 09:44:00,
2013-12-10 04:49:00,50.8,50.8,29.93,ESE,111,2.0,4.0,100,0.01,,OVC055,0.06,VWS V14.01,2013-12-10 09:49:00,
2013-12-10 04:54:00,50.9,50.9,29.92,ESE,105,0.0,4.0,100,0.02,,OVC055,0.07,VWS V14.01,2013-12-10 09:54:00,
2013-12-10 04:59:00,50.9,50.9,29.92,SE,146,0.0,3.0,100,0.01,,OVC055,0.07,VWS V14.01,2013-12-10 09:59:00,
2013-12-10 05:00:00,50.9,50.9,29.92,SE,131,1.0,4.0,100,0.02,,OVC055,0.07,VWS V14.01,2013-12-10 10:00:00,
2013-12-10 05:03:00,51.1,51.1,29.92,NW,325,0.0,3.0,100,0.01,,OVC055,0.07,VWS V14.01,2013-12-10 10:03:00,
2013-12-10 05:08:00,51.3,51.3,29.92,NNW,331,1.0,3.0,100,0.01,,OVC055,0.07,VWS V14.01,2013-12-10 10:08:00,
2013-12-10 05:13:00,51.4,51.4,29.92,NW,320,0.0,3.0,100,0.04,,OVC055,0.10,VWS V14.01,2013-12-10 10:13:00,
2013-12-10 05:18:00,51.4,51.4,29.92,NW,326,0.0,3.0,100,0.05,,OVC055,0.11,VWS V14.01,2013-12-10 10:18:00,
2013-12-10 05:23:00,51.4,51.4,29.91,NE,37,2.0,3.0,100,0.06,,OVC055,0.12,VWS V14.01,2013-12-10 10:23:00,
2013-12-10 05:28:00,51.3,51.3,29.92,NNE,30,0.0,2.0,100,0.10,,OVC055,0.16,VWS V14.01,2013-12-10 10:28:00,
2013-12-10 05:30:00,51.3,51.3,29.92,NNE,30,1.0,3.0,100,0.10,,OVC055,0.16,VWS V14.01,2013-12-10 10:30:00,
2013-12-10 05:33:00,51.2,51.2,29.92,NNE,30,0.0,2.0,100,0.13,,OVC055,0.19,VWS V14.01,2013-12-10 10:33:00,
2013-12-10 05:38:00,51.0,51.0,29.92,NE,54,1.0,3.0,100,0.17,,OVC055,0.23,VWS V14.01,2013-12-10 10:38:00,
2013-12-10 05:43:00,51.0,51.0,29.92,ENE,61,1.0,3.0,100,0.18,,OVC055,0.24,VWS V14.01,2013-12-10 10:43:00,
2013-12-10 05:48:00,51.1,51.1,29.92,ENE,61,0.0,3.0,100,0.19,,OVC055,0.25,VWS V14.01,2013-12-10 10:48:00,
2013-12-10 05:53:00,51.1,51.1,29.92,North,355,2.0,3.0,100,0.19,,OVC055,0.25,VWS V14.01,2013-12-10 10:53:00,
2013-12-10 05:58:00,51.0,51.0,29.91,NNW,342,0.0,2.0,100,0.19,,OVC055,0.26,VWS V14.01,2013-12-10 10:58:00,
2013-12-10 06:00:00,51.1,51.1,29.92,NNW,342,2.0,4.0,100,0.20,,OVC055,0.26,VWS V14.01,2013-12-10 11:00:00,
2013-12-10 06:03:00,50.9,50.9,29.91,NNW,342,0.0,2.0,100,0.19,,OVC055,0.26,VWS V14.01,2013-12-10 11:03:00,
2013-12-10 06:08:00,50.8,50.8,29.90,NNW,342,0.0,2.0,100,0.19,,OVC055,0.26,VWS V14.01,2013-12-10 11:08:00,
2013-12-10 06:13:00,50.8,50.8,29.90,North,350,1.0,4.0,100,0.20,,OVC055,0.27,VWS V14.01,2013-12-10 11:13:00,
2013-12-10 06:18:00,50.7,50.7,29.91,North,350,0.0,4.0,100,0.20,,OVC055,0.27,VWS V14.01,2013-12-10 11:18:00,
2013-12-10 06:23:00,50.7,50.7,29.91,WSW,254,0.0,4.0,100,0.20,,OVC055,0.27,VWS V14.01,2013-12-10 11:23:00,
2013-12-10 06:28:00,50.7,50.7,29.91,NW,321,0.0,1.0,100,0.12,,OVC055,0.28,VWS V14.01,2013-12-10 11:28:00,
2013-12-10 06:30:00,50.7,50.7,29.91,NW,321,1.0,6.0,100,0.21,,OVC055,0.28,VWS V14.01,2013-12-10 11:30:00,
2013-12-10 06:33:00,50.7,50.7,29.92,West,279,0.0,3.0,100,0.13,,OVC055,0.29,VWS V14.01,2013-12-10 11:33:00,
2013-12-10 06:38:00,50.6,50.6,29.92,NW,326,1.0,4.0,100,0.13,,OVC055,0.29,VWS V14.01,2013-12-10 11:38:00,
2013-12-10 06:43:00,50.5,50.5,29.91,WNW,293,0.0,4.0,100,0.13,,OVC055,0.29,VWS V14.01,2013-12-10 11:43:00,
2013-12-10 06:48:00,50.5,50.5,29.91,WNW,293,0.0,4.0,100,0.13,,OVC055,0.29,VWS V14.01,2013-12-10 11:48:00,
2013-12-10 06:53:00,50.5,50.5,29.91,SSW,204,0.0,4.0,100,0.13,,OVC055,0.29,VWS V14.01,2013-12-10 11:53:00,
2013-12-10 06:58:00,50.3,50.3,29.92,WNW,300,1.0,2.0,100,0.03,,OVC055,0.29,VWS V14.01,2013-12-10 11:58:00,
2013-12-10 07:00:00,50.4,50.4,29.92,SW,224,0.0,4.0,100,0.13,,OVC055,0.29,VWS V14.01,2013-12-10 12:00:00,
2013-12-10 07:03:00,50.3,50.3,29.92,SSW,207,2.0,5.0,100,0.03,,OVC055,0.29,VWS V14.01,2013-12-10 12:03:00,
2013-12-10 07:08:00,50.3,50.3,29.92,NW,323,0.0,5.0,100,0.03,,OVC055,0.29,VWS V14.01,2013-12-10 12:08:00,
2013-12-10 07:13:00,50.3,50.3,29.91,NW,323,0.0,5.0,100,0.03,,OVC055,0.29,VWS V14.01,2013-12-10 12:13:00,
2013-12-10 07:18:00,50.3,50.3,29.92,SSW,197,3.0,5.0,100,0.03,,OVC055,0.29,VWS V14.01,2013-12-10 12:18:00,
2013-12-10 07:23:00,50.4,50.4,29.92,WNW,293,1.0,6.0,100,0.03,,OVC055,0.29,VWS V14.01,2013-12-10 12:23:00,
2013-12-10 07:28:00,50.4,50.4,29.93,South,179,2.0,2.0,100,0.01,,OVC055,0.29,VWS V14.01,2013-12-10 12:28:00,
2013-12-10 07:30:00,50.4,50.4,29.93,South,179,1.0,6.0,100,0.03,,OVC055,0.29,VWS V14.01,2013-12-10 12:30:00,
2013-12-10 07:33:00,50.5,50.5,29.92,SE,144,0.0,3.0,100,0.02,,OVC055,0.30,VWS V14.01,2013-12-10 12:33:00,
2013-12-10 07:38:00,50.6,50.6,29.92,SSE,159,0.0,4.0,100,0.02,,OVC055,0.30,VWS V14.01,2013-12-10 12:38:00,
2013-12-10 07:43:00,50.6,50.6,29.92,SW,214,0.0,4.0,100,0.02,,OVC055,0.30,VWS V14.01,2013-12-10 12:43:00,
2013-12-10 07:48:00,50.6,50.6,29.92,SW,214,0.0,4.0,100,0.02,,OVC055,0.30,VWS V14.01,2013-12-10 12:48:00,
2013-12-10 07:53:00,50.5,50.5,29.92,SSE,163,0.0,4.0,100,0.02,,OVC055,0.30,VWS V14.01,2013-12-10 12:53:00,
2013-12-10 07:58:00,50.5,50.5,29.92,SSE,163,0.0,0.0,100,0.01,,OVC055,0.30,VWS V14.01,2013-12-10 12:58:00,
2013-12-10 08:00:00,50.5,50.5,29.92,SSE,163,0.0,4.0,100,0.02,,OVC055,0.30,VWS V14.01,2013-12-10 13:00:00,
2013-12-10 08:03:00,50.5,50.5,29.92,SSE,163,0.0,0.0,100,0.01,,OVC055,0.30,VWS V14.01,2013-12-10 13:03:00,
2013-12-10 08:08:00,50.5,50.5,29.92,SSE,163,0.0,1.0,100,0.01,,OVC055,0.30,VWS V14.01,2013-12-10 13:08:00,
2013-12-10 08:13:00,50.5,50.5,29.93,SSE,163,0.0,1.0,100,0.01,,OVC055,0.30,VWS V14.01,2013-12-10 13:13:00,
2013-12-10 08:18:00,50.4,50.4,29.93,North,5,3.0,6.0,100,0.01,,OVC055,0.30,VWS V14.01,2013-12-10 13:18:00,
2013-12-10 08:23:00,49.5,49.2,29.93,NNE,15,2.0,6.0,99,0.01,,OVC055,0.30,VWS V14.01,2013-12-10 13:23:00,
2013-12-10 08:28:00,49.0,48.7,29.94,NNE,17,5.0,5.0,99,0.01,,OVC055,0.30,VWS V14.01,2013-12-10 13:28:00,
2013-12-10 08:30:00,49.0,48.7,29.94,NNE,22,5.0,6.0,99,0.01,,OVC055,0.30,VWS V14.01,2013-12-10 13:30:00,
2013-12-10 08:33:00,48.5,48.2,29.94,North,9,4.0,5.0,99,0.01,,OVC055,0.30,VWS V14.01,2013-12-10 13:33:00,
2013-12-10 08:38:00,48.1,48.1,29.94,North,355,2.0,6.0,100,0.01,,OVC055,0.30,VWS V14.01,2013-12-10 13:38:00,
2013-12-10 08:43:00,48.0,48.0,29.94,North,355,2.0,6.0,100,0.01,,OVC055,0.30,VWS V14.01,2013-12-10 13:43:00,
2013-12-10 08:48:00,48.3,48.3,29.95,North,355,0.0,6.0,100,0.01,,OVC055,0.30,VWS V14.01,2013-12-10 13:48:00,
2013-12-10 08:53:00,48.0,48.0,29.95,NNE,25,0.0,6.0,100,0.01,,OVC055,0.30,VWS V14.01,2013-12-10 13:53:00,
2013-12-10 08:58:00,47.8,47.8,29.95,NNE,20,0.0,2.0,100,0.00,,OVC055,0.30,VWS V14.01,2013-12-10 13:58:00,
2013-12-10 09:00:00,47.8,47.5,29.95,NNE,20,2.0,6.0,99,0.01,,OVC055,0.30,VWS V14.01,2013-12-10 14:00:00,
2013-12-10 09:03:00,47.6,47.6,29.95,NNE,20,3.0,3.0,100,0.00,,OVC055,0.30,VWS V14.01,2013-12-10 14:03:00,
2013-12-10 09:08:00,47.5,47.2,29.94,NNE,20,0.0,3.0,99,0.00,,OVC055,0.30,VWS V14.01,2013-12-10 14:08:00,
2013-12-10 09:13:00,47.5,47.5,29.94,NNE,20,4.0,4.0,100,0.00,,OVC055,0.30,VWS V14.01,2013-12-10 14:13:00,
2013-12-10 09:18:00,47.7,47.7,29.94,NNE,15,2.0,4.0,100,0.00,,OVC055,0.30,VWS V14.01,2013-12-10 14:18:00,
2013-12-10 09:23:00,47.9,47.9,29.94,NNE,13,0.0,5.0,100,0.00,,OVC055,0.30,VWS V14.01,2013-12-10 14:23:00,
2013-12-10 09:28:00,48.0,48.0,29.94,NNE,13,0.0,0.0,100,0.00,,OVC055,0.30,VWS V14.01,2013-12-10 14:28:00,
2013-12-10 09:30:00,48.0,48.0,29.94,NNE,14,0.0,5.0,100,0.00,,OVC055,0.30,VWS V14.01,2013-12-10 14:30:00,
2013-12-10 09:33:00,48.5,48.5,29.94,NNW,330,0.0,4.0,100,0.00,,OVC055,0.30,VWS V14.01,2013-12-10 14:33:00,
2013-12-10 09:38:00,49.2,49.2,29.95,North,351,3.0,4.0,100,0.00,,OVC055,0.30,VWS V14.01,2013-12-10 14:38:00,
2013-12-10 09:43:00,50.2,50.2,29.96,West,275,2.0,9.0,100,0.00,,OVC055,0.30,VWS V14.01,2013-12-10 14:43:00,
2013-12-10 09:48:00,51.0,50.2,29.96,WSW,237,1.0,9.0,97,0.00,,OVC055,0.30,VWS V14.01,2013-12-10 14:48:00,
2013-12-10 09:53:00,51.9,50.2,29.96,South,171,3.0,9.0,94,0.00,,OVC055,0.30,VWS V14.01,2013-12-10 14:53:00,
2013-12-10 09:58:00,52.4,49.8,29.96,SW,231,5.0,5.0,91,0.00,,OVC055,0.30,VWS V14.01,2013-12-10 14:58:00,
2013-12-10 10:00:00,52.4,49.8,29.96,SW,220,5.0,9.0,91,0.00,,OVC055,0.30,VWS V14.01,2013-12-10 15:00:00,
2013-12-10 10:03:00,52.8,50.0,29.96,South,182,3.0,11.0,90,0.00,,OVC055,0.30,VWS V14.01,2013-12-10 15:03:00,
2013-12-10 10:08:00,53.0,49.8,29.97,WSW,253,1.0,11.0,89,0.00,,OVC055,0.30,VWS V14.01,2013-12-10 15:08:00,
2013-12-10 10:13:00,53.4,49.9,29.97,SSE,150,2.0,11.0,88,0.00,,OVC055,0.30,VWS V14.01,2013-12-10 15:13:00,
2013-12-10 10:18:00,53.9,49.2,29.97,SW,225,4.0,11.0,84,0.00,,OVC055,0.30,VWS V14.01,2013-12-10 15:18:00,
2013-12-10 10:23:00,54.4,48.4,29.98,WNW,296,2.0,11.0,80,0.00,,OVC055,0.30,VWS V14.01,2013-12-10 15:23:00,
2013-12-10 10:28:00,54.5,47.8,29.99,NW,323,3.0,3.0,78,0.00,,OVC055,0.30,VWS V14.01,2013-12-10 15:28:00,
2013-12-10 10:30:00,54.5,47.8,29.98,NW,304,2.0,14.0,78,0.00,,OVC055,0.30,VWS V14.01,2013-12-10 15:30:00,
2013-12-10 10:33:00,54.2,47.2,29.99,North,351,2.0,8.0,77,0.00,,OVC055,0.30,VWS V14.01,2013-12-10 15:33:00,
2013-12-10 10:38:00,54.3,47.6,30.00,West,281,1.0,8.0,78,0.00,,OVC055,0.30,VWS V14.01,2013-12-10 15:38:00,
2013-12-10 10:43:00,54.5,45.7,30.01,SW,231,6.0,12.0,72,0.00,,OVC055,0.30,VWS V14.01,2013-12-10 15:43:00,
2013-12-10 10:48:00,54.2,43.9,30.01,NW,324,4.0,15.0,68,0.00,,OVC055,0.30,VWS V14.01,2013-12-10 15:48:00,
2013-12-10 10:53:00,53.9,44.0,30.00,WSW,242,6.0,15.0,69,0.00,,OVC055,0.30,VWS V14.01,2013-12-10 15:53:00,
2013-12-10 10:58:00,53.8,44.6,30.01,NNE,15,9.0,15.0,71,0.00,,OVC055,0.30,VWS V14.01,2013-12-10 15:58:00,
2013-12-10 11:00:00,53.8,44.6,30.01,NNE,15,9.0,15.0,71,0.00,,OVC055,0.30,VWS V14.01,2013-12-10 16:00:00,
2013-12-10 11:03:00,53.8,44.3,30.02,NNW,342,4.0,13.0,70,0.00,,OVC055,0.30,VWS V14.01,2013-12-10 16:03:00,
2013-12-10 11:08:00,54.0,44.1,30.02,SSW,200,0.0,13.0,69,0.00,,OVC055,0.30,VWS V14.01,2013-12-10 16:08:00,
2013-12-10 11:13:00,54.3,43.6,30.02,South,180,1.0,13.0,67,0.00,,OVC055,0.30,VWS V14.01,2013-12-10 16:13:00,
2013-12-10 11:18:00,53.6,46.9,30.03,NE,54,9.0,13.0,78,0.00,,OVC055,0.30,VWS V14.01,2013-12-10 16:18:00,
2013-12-10 11:23:00,51.9,46.6,30.04,NE,54,5.0,13.0,82,0.00,,OVC055,0.30,VWS V14.01,2013-12-10 16:23:00,
2013-12-10 11:28:00,51.0,46.0,30.03,North,5,8.0,13.0,83,0.00,,OVC055,0.30,VWS V14.01,2013-12-10 16:28:00,
2013-12-10 11:30:00,51.0,46.0,30.03,North,5,8.0,13.0,83,0.00,,OVC055,0.30,VWS V14.01,2013-12-10 16:30:00,
2013-12-10 11:32:00,49.8,45.8,30.04,NE,48,7.0,10.0,86,0.00,,OVC055,0.30,VWS V14.01,2013-12-10 16:32:00,
2013-12-10 11:37:00,48.8,44.8,30.05,NNE,15,4.0,12.0,86,0.00,,OVC055,0.30,VWS V14.01,2013-12-10 16:37:00,
2013-12-10 11:42:00,48.7,45.3,30.05,NNW,346,0.0,12.0,88,0.00,,OVC055,0.30,VWS V14.01,2013-12-10 16:42:00,
2013-12-10 11:47:00,48.9,45.2,30.05,NE,38,0.0,12.0,87,0.00,,OVC055,0.30,VWS V14.01,2013-12-10 16:47:00,
2013-12-10 11:52:00,49.0,44.7,30.06,NE,52,2.0,12.0,85,0.00,,OVC055,0.30,VWS V14.01,2013-12-10 16:52:00,
2013-12-10 11:57:00,49.0,44.7,30.05,ENE,65,0.0,12.0,85,0.00,,OVC055,0.30,VWS V14.01,2013-12-10 16:57:00,
2013-12-10 12:00:00,49.0,44.7,30.05,ENE,65,0.0,12.0,85,0.00,,OVC055,0.30,VWS V14.01,2013-12-10 17:00:00,
2013-12-10 12:02:00,49.2,44.9,30.06,East,86,2.0,3.0,85,0.00,,OVC055,0.30,VWS V14.01,2013-12-10 17:02:00,
2013-12-10 12:07:00,49.4,42.8,30.06,North,360,8.0,13.0,78,0.00,,OVC055,0.30,VWS V14.01,2013-12-10 17:07:00,
2013-12-10 12:12:00,49.2,42.0,30.06,North,11,9.0,13.0,76,0.00,,OVC055,0.30,VWS V14.01,2013-12-10 17:12:00,
2013-12-10 12:17:00,48.8,40.2,30.06,NNW,346,8.0,14.0,72,0.00,,OVC055,0.30,VWS V14.01,2013-12-10 17:17:00,
2013-12-10 12:22:00,48.6,39.6,30.06,North,355,8.0,14.0,71,0.00,,OVC055,0.30,VWS V14.01,2013-12-10 17:22:00,
2013-12-10 12:27:00,48.6,39.6,30.05,NE,40,4.0,14.0,71,0.00,,OVC055,0.30,VWS V14.01,2013-12-10 17:27:00,
2013-12-10 12:30:00,48.6,39.6,30.05,NE,40,4.0,14.0,71,0.00,,OVC055,0.30,VWS V14.01,2013-12-10 17:30:00,
2013-12-10 12:32:00,49.1,39.4,30.06,North,9,8.0,12.0,69,0.00,,OVC055,0.30,VWS V14.01,2013-12-10 17:32:00,
2013-12-10 12:37:00,49.3,38.0,30.06,North,5,14.0,15.0,65,0.00,,OVC055,0.30,VWS V14.01,2013-12-10 17:37:00,
2013-12-10 12:42:00,48.7,37.9,30.06,North,350,11.0,25.0,66,0.00,,OVC055,0.30,VWS V14.01,2013-12-10 17:42:00,
2013-12-10 12:47:00,48.6,37.4,30.06,WNW,300,10.0,25.0,65,0.00,,OVC055,0.30,VWS V14.01,2013-12-10 17:47:00,
2013-12-10 12:52:00,48.5,36.9,30.07,NNE,27,3.0,25.0,64,0.00,,OVC055,0.30,VWS V14.01,2013-12-10 17:52:00,
2013-12-10 12:57:00,48.6,38.2,30.06,North,5,9.0,25.0,67,0.00,,OVC055,0.30,VWS V14.01,2013-12-10 17:57:00,
2013-12-10 13:00:00,48.6,38.2,30.06,NE,46,7.0,25.0,67,0.00,,OVC055,0.30,VWS V14.01,2013-12-10 18:00:00,
2013-12-10 13:02:00,48.4,36.8,30.06,NE,44,7.0,15.0,64,0.00,,OVC055,0.30,VWS V14.01,2013-12-10 18:02:00,
2013-12-10 13:07:00,48.3,37.1,30.06,NNE,33,13.0,15.0,65,0.00,,OVC055,0.30,VWS V14.01,2013-12-10 18:07:00,
2013-12-10 13:12:00,48.1,36.1,30.06,North,5,8.0,15.0,63,0.00,,OVC055,0.30,VWS V14.01,2013-12-10 18:12:00,
2013-12-10 13:17:00,48.2,36.2,30.06,NE,40,11.0,15.0,63,0.00,,OVC055,0.30,VWS V14.01,2013-12-10 18:17:00,
2013-12-10 13:22:00,48.4,36.4,30.06,NNE,26,9.0,15.0,63,0.00,,OVC055,0.30,VWS V14.01,2013-12-10 18:22:00,
2013-12-10 13:27:00,48.3,34.7,30.06,NE,55,5.0,15.0,59,0.00,,OVC055,0.30,VWS V14.01,2013-12-10 18:27:00,
2013-12-10 13:30:00,48.3,34.7,30.06,NE,55,6.0,15.0,59,0.00,,OVC055,0.30,VWS V14.01,2013-12-10 18:30:00,
2013-12-10 13:32:00,48.2,34.1,30.07,ENE,59,9.0,14.0,58,0.00,,OVC055,0.30,VWS V14.01,2013-12-10 18:32:00,
2013-12-10 13:37:00,48.0,33.9,30.07,North,5,10.0,15.0,58,0.00,,OVC055,0.30,VWS V14.01,2013-12-10 18:37:00,
2013-12-10 13:42:00,48.1,33.6,30.07,NNE,18,11.0,16.0,57,0.00,,OVC055,0.30,VWS V14.01,2013-12-10 18:42:00,
2013-12-10 13:47:00,47.8,32.4,30.07,NE,49,7.0,16.0,55,0.00,,OVC055,0.30,VWS V14.01,2013-12-10 18:47:00,
2013-12-10 13:52:00,47.8,32.9,30.08,NE,55,7.0,16.0,56,0.00,,OVC055,0.30,VWS V14.01,2013-12-10 18:52:00,
2013-12-10 13:57:00,47.9,33.4,30.07,NE,36,7.0,16.0,57,0.00,,OVC055,0.30,VWS V14.01,2013-12-10 18:57:00,
2013-12-10 14:00:00,47.9,33.8,30.07,NNE,18,9.0,16.0,58,0.00,,OVC055,0.30,VWS V14.01,2013-12-10 19:00:00,
2013-12-10 14:02:00,47.8,32.0,30.08,North,11,11.0,17.0,54,0.00,,OVC055,0.30,VWS V14.01,2013-12-10 19:02:00,
2013-12-10 14:07:00,47.9,33.4,30.08,NNE,24,8.0,17.0,57,0.00,,OVC055,0.30,VWS V14.01,2013-12-10 19:07:00,
2013-12-10 14:12:00,47.7,33.2,30.08,NE,49,7.0,17.0,57,0.00,,OVC055,0.30,VWS V14.01,2013-12-10 19:12:00,
2013-12-10 14:17:00,47.3,33.3,30.09,NE,50,8.0,17.0,58,0.00,,OVC055,0.30,VWS V14.01,2013-12-10 19:17:00,
2013-12-10 14:22:00,47.1,33.9,30.09,ENE,61,4.0,17.0,60,0.00,,OVC055,0.30,VWS V14.01,2013-12-10 19:22:00,
2013-12-10 14:27:00,47.2,33.2,30.09,NE,34,4.0,17.0,58,0.00,,OVC055,0.30,VWS V14.01,2013-12-10 19:27:00,
2013-12-10 14:30:00,47.2,33.2,30.09,NE,40,6.0,17.0,58,0.00,,OVC055,0.30,VWS V14.01,2013-12-10 19:30:00,
2013-12-10 14:32:00,47.2,32.3,30.09,NE,35,5.0,14.0,56,0.00,,OVC055,0.30,VWS V14.01,2013-12-10 19:32:00,
2013-12-10 14:37:00,47.1,32.7,30.09,NE,40,5.0,14.0,57,0.00,,OVC055,0.30,VWS V14.01,2013-12-10 19:37:00,
2013-12-10 14:42:00,47.0,32.1,30.10,NNE,13,6.0,14.0,56,0.00,,OVC055,0.30,VWS V14.01,2013-12-10 19:42:00,
2013-12-10 14:47:00,46.8,31.5,30.10,NE,38,6.0,14.0,55,0.00,,OVC055,0.30,VWS V14.01,2013-12-10 19:47:00,
2013-12-10 14:52:00,46.8,32.8,30.10,NE,47,4.0,14.0,58,0.00,,OVC055,0.30,VWS V14.01,2013-12-10 19:52:00,
2013-12-10 14:57:00,46.6,33.0,30.10,NNW,333,0.0,14.0,59,0.00,,OVC055,0.30,VWS V14.01,2013-12-10 19:57:00,
2013-12-10 15:00:00,46.6,33.5,30.10,NNW,333,0.0,14.0,60,0.00,,OVC055,0.30,VWS V14.01,2013-12-10 20:00:00,
2013-12-10 15:02:00,46.3,33.2,30.11,NE,41,3.0,4.0,60,0.00,,OVC055,0.30,VWS V14.01,2013-12-10 20:02:00,
2013-12-10 15:07:00,46.2,32.7,30.11,NNE,24,3.0,5.0,59,0.00,,OVC055,0.30,VWS V14.01,2013-12-10 20:07:00,
2013-12-10 15:12:00,46.0,32.9,30.12,NNW,347,9.0,9.0,60,0.00,,OVC055,0.30,VWS V14.01,2013-12-10 20:12:00,
2013-12-10 15:17:00,46.0,31.6,30.12,NNW,343,3.0,9.0,57,0.00,,OVC055,0.30,VWS V14.01,2013-12-10 20:17:00,
2013-12-10 15:22:00,45.9,30.7,30.12,ENE,74,2.0,9.0,55,0.00,,OVC055,0.30,VWS V14.01,2013-12-10 20:22:00,
2013-12-10 15:27:00,45.9,30.2,30.12,NNE,31,5.0,9.0,54,0.00,,OVC055,0.30,VWS V14.01,2013-12-10 20:27:00,
2013-12-10 15:30:00,45.9,30.7,30.12,NNE,30,6.0,9.0,55,0.00,,OVC055,0.30,VWS V14.01,2013-12-10 20:30:00,
2013-12-10 15:32:00,45.8,29.7,30.12,NE,43,6.0,8.0,53,0.00,,OVC055,0.30,VWS V14.01,2013-12-10 20:32:00,
2013-12-10 15:37:00,45.7,29.6,30.12,NE,38,1.0,9.0,53,0.00,,OVC055,0.30,VWS V14.01,2013-12-10 20:37:00,
2013-12-10 15:42:00,45.7,29.1,30.13,ENE,65,3.0,9.0,52,0.00,,OVC055,0.30,VWS V14.01,2013-12-10 20:42:00,
2013-12-10 15:47:00,45.6,29.0,30.13,NE,48,5.0,9.0,52,0.00,,OVC055,0.30,VWS V14.01,2013-12-10 20:47:00,
2013-12-10 15:52:00,45.5,28.4,30.13,NNE,19,6.0,9.0,51,0.00,,OVC055,0.30,VWS V14.01,2013-12-10 20:52:00,
2013-12-10 15:57:00,45.4,30.6,30.13,NE,44,1.0,9.0,56,0.00,,OVC055,0.30,VWS V14.01,2013-12-10 20:57:00,
2013-12-10 16:00:00,45.4,30.6,30.13,NE,44,0.0,9.0,56,0.00,,OVC055,0.30,VWS V14.01,2013-12-10 21:00:00,
2013-12-10 16:02:00,45.0,29.4,30.13,East,94,2.0,4.0,54,0.00,,OVC055,0.30,VWS V14.01,2013-12-10 21:02:00,
2013-12-10 16:07:00,44.9,26.9,30.14,NE,36,4.0,8.0,49,0.00,,OVC055,0.30,VWS V14.01,2013-12-10 21:07:00,
2013-12-10 16:12:00,45.1,28.1,30.14,East,93,0.0,8.0,51,0.00,,OVC055,0.30,VWS V14.01,2013-12-10 21:12:00,
2013-12-10 16:17:00,44.7,28.6,30.14,East,92,1.0,8.0,53,0.00,,OVC055,0.30,VWS V14.01,2013-12-10 21:17:00,
2013-12-10 16:22:00,44.6,28.1,30.15,NE,52,2.0,8.0,52,0.00,,OVC055,0.30,VWS V14.01,2013-12-10 21:22:00,
2013-12-10 16:27:00,44.3,27.3,30.15,NE,34,1.0,8.0,51,0.00,,OVC055,0.30,VWS V14.01,2013-12-10 21:27:00,
2013-12-10 16:30:00,44.3,27.3,30.15,ENE,60,3.0,8.0,51,0.00,,OVC055,0.30,VWS V14.01,2013-12-10 21:30:00,
2013-12-10 16:32:00,44.4,26.0,30.15,ENE,65,3.0,8.0,48,0.00,,OVC055,0.30,VWS V14.01,2013-12-10 21:32:00,
2013-12-10 16:37:00,44.4,25.5,30.16,NE,44,1.0,8.0,47,0.00,,OVC055,0.30,VWS V14.01,2013-12-10 21:37:00,
2013-12-10 16:42:00,44.2,29.1,30.16,ENE,66,1.0,8.0,55,0.00,,OVC055,0.30,VWS V14.01,2013-12-10 21:42:00,
2013-12-10 16:47:00,43.7,27.2,30.17,NE,54,4.0,9.0,52,0.00,,OVC055,0.30,VWS V14.01,2013-12-10 21:47:00,
2013-12-10 16:52:00,43.3,27.8,30.17,ENE,58,0.0,9.0,54,0.00,,OVC055,0.30,VWS V14.01,2013-12-10 21:52:00,
2013-12-10 16:57:00,42.9,29.2,30.17,NE,49,0.0,9.0,58,0.00,,OVC055,0.30,VWS V14.01,2013-12-10 21:57:00,
2013-12-10 17:00:00,42.9,29.2,30.17,NE,49,0.0,9.0,58,0.00,,OVC055,0.30,VWS V14.01,2013-12-10 22:00:00,
2013-12-10 17:02:00,42.4,29.9,30.18,NE,45,2.0,3.0,61,0.00,,OVC055,0.30,VWS V14.01,2013-12-10 22:02:00,
2013-12-10 17:07:00,41.8,29.0,30.18,NNE,17,1.0,4.0,60,0.00,,OVC055,0.30,VWS V14.01,2013-12-10 22:07:00,
2013-12-10 17:12:00,41.3,28.5,30.19,NNE,17,3.0,8.0,60,0.00,,OVC055,0.30,VWS V14.01,2013-12-10 22:12:00,
2013-12-10 17:17:00,40.9,28.5,30.19,NE,34,4.0,8.0,61,0.00,,OVC055,0.30,VWS V14.01,2013-12-10 22:17:00,
2013-12-10 17:22:00,40.5,28.1,30.20,NE,48,3.0,8.0,61,0.00,,OVC055,0.30,VWS V14.01,2013-12-10 22:22:00,
2013-12-10 17:27:00,40.0,28.0,30.20,NE,55,3.0,8.0,62,0.00,,OVC055,0.30,VWS V14.01,2013-12-10 22:27:00,
2013-12-10 17:30:00,40.0,28.0,30.20,ENE,63,2.0,8.0,62,0.00,,OVC055,0.30,VWS V14.01,2013-12-10 22:30:00,
2013-12-10 17:32:00,39.5,28.0,30.20,ENE,66,3.0,6.0,63,0.00,,OVC055,0.30,VWS V14.01,2013-12-10 22:32:00,
2013-12-10 17:37:00,39.1,27.6,30.21,NE,46,6.0,6.0,63,0.00,,OVC055,0.30,VWS V14.01,2013-12-10 22:37:00,
2013-12-10 17:42:00,38.7,28.0,30.21,NE,42,6.0,12.0,65,0.00,,OVC055,0.30,VWS V14.01,2013-12-10 22:42:00,
2013-12-10 17:47:00,38.3,28.0,30.21,ENE,73,3.0,12.0,66,0.00,,OVC055,0.30,VWS V14.01,2013-12-10 22:47:00,
2013-12-10 17:52:00,38.0,27.7,30.22,NE,53,4.0,12.0,66,0.00,,OVC055,0.30,VWS V14.01,2013-12-10 22:52:00,
2013-12-10 17:57:00,37.8,27.5,30.22,NE,36,5.0,12.0,66,0.00,,OVC055,0.30,VWS V14.01,2013-12-10 22:57:00,
2013-12-10 18:00:00,37.8,27.5,30.22,NE,56,3.0,12.0,66,0.00,,OVC055,0.30,VWS V14.01,2013-12-10 23:00:00,
2013-12-10 18:02:00,37.5,27.5,30.23,NE,48,2.0,8.0,67,0.00,,OVC055,0.30,VWS V14.01,2013-12-10 23:02:00,
2013-12-10 18:07:00,37.3,27.4,30.23,NE,51,1.0,10.0,67,0.00,,OVC055,0.30,VWS V14.01,2013-12-10 23:07:00,
2013-12-10 18:12:00,37.0,26.7,30.23,NE,51,4.0,10.0,66,0.00,,OVC055,0.30,VWS V14.01,2013-12-10 23:12:00,
2013-12-10 18:17:00,36.8,27.2,30.23,NNE,28,4.0,10.0,68,0.00,,OVC055,0.30,VWS V14.01,2013-12-10 23:17:00,
2013-12-10 18:22:00,36.5,27.0,30.24,NNE,31,4.0,10.0,68,0.00,,OVC055,0.30,VWS V14.01,2013-12-10 23:22:00,
2013-12-10 18:27:00,36.3,27.1,30.24,NE,51,1.0,10.0,69,0.00,,OVC055,0.30,VWS V14.01,2013-12-10 23:27:00,
2013-12-10 18:30:00,36.2,27.0,30.24,NE,55,2.0,10.0,69,0.00,,OVC055,0.30,VWS V14.01,2013-12-10 23:30:00,
2013-12-10 18:32:00,36.0,26.8,30.24,ENE,61,5.0,5.0,69,0.00,,OVC055,0.30,VWS V14.01,2013-12-10 23:32:00,
2013-12-10 18:37:00,35.9,26.7,30.24,NE,53,3.0,7.0,69,0.00,,OVC055,0.30,VWS V14.01,2013-12-10 23:37:00,
2013-12-10 18:42:00,35.7,26.5,30.25,NE,50,0.0,7.0,69,0.00,,OVC055,0.30,VWS V14.01,2013-12-10 23:42:00,
2013-12-10 18:47:00,35.5,26.0,30.25,ENE,69,2.0,7.0,68,0.00,,OVC055,0.30,VWS V14.01,2013-12-10 23:47:00,
2013-12-10 18:52:00,35.5,25.6,30.25,NE,55,0.0,7.0,67,0.00,,OVC055,0.30,VWS V14.01,2013-12-10 23:52:00,
2013-12-10 18:57:00,35.5,25.3,30.25,NE,45,2.0,7.0,66,0.00,,OVC055,0.30,VWS V14.01,2013-12-10 23:57:00,
2013-12-10 19:00:00,35.5,25.6,30.25,NE,53,2.0,7.0,67,0.00,,OVC055,0.30,VWS V14.01,2013-12-11 00:00:00,
2013-12-10 19:02:00,35.5,26.0,30.26,ENE,59,0.0,3.0,68,0.00,,OVC055,0.30,VWS V14.01,2013-12-11 00:02:00,
2013-12-10 19:07:00,35.3,26.2,30.26,ENE,59,2.0,3.0,69,0.00,,OVC055,0.30,VWS V14.01,2013-12-11 00:07:00,
2013-12-10 19:11:00,35.0,26.2,30.26,ENE,59,0.0,3.0,70,0.00,,OVC055,0.30,VWS V14.01,2013-12-11 00:11:00,
2013-12-10 19:16:00,34.3,25.9,30.26,ENE,59,1.0,3.0,71,0.00,,OVC055,0.30,VWS V14.01,2013-12-11 00:16:00,
2013-12-10 19:21:00,33.7,25.3,30.26,ENE,59,1.0,3.0,71,0.00,,OVC055,0.30,VWS V14.01,2013-12-11 00:21:00,
2013-12-10 19:26:00,33.0,25.3,30.27,ENE,59,1.0,3.0,73,0.00,,OVC055,0.30,VWS V14.01,2013-12-11 00:26:00,
2013-12-10 19:30:00,32.9,25.2,30.27,ENE,59,0.0,3.0,73,0.00,,OVC055,0.30,VWS V14.01,2013-12-11 00:30:00,
2013-12-10 19:31:00,32.5,25.5,30.27,ENE,59,0.0,1.0,75,0.00,,OVC055,0.30,VWS V14.01,2013-12-11 00:31:00,
2013-12-10 19:36:00,32.1,25.1,30.27,ENE,59,0.0,1.0,75,0.00,,OVC055,0.30,VWS V14.01,2013-12-11 00:36:00,
2013-12-10 19:41:00,31.9,25.2,30.27,ENE,59,0.0,1.0,76,0.00,,OVC055,0.30,VWS V14.01,2013-12-11 00:41:00,
2013-12-10 19:46:00,31.7,25.0,30.27,ENE,59,0.0,1.0,76,0.00,,OVC055,0.30,VWS V14.01,2013-12-11 00:46:00,
2013-12-10 19:51:00,31.4,25.0,30.27,ENE,59,0.0,1.0,77,0.00,,OVC055,0.30,VWS V14.01,2013-12-11 00:51:00,
2013-12-10 19:56:00,31.2,26.1,30.28,ENE,59,1.0,1.0,81,0.00,,OVC055,0.30,VWS V14.01,2013-12-11 00:56:00,
2013-12-10 20:00:00,31.1,26.0,30.28,ENE,59,0.0,1.0,81,0.00,,OVC055,0.30,VWS V14.01,2013-12-11 01:00:00,
2013-12-10 20:01:00,30.9,25.2,30.28,ENE,59,2.0,2.0,79,0.00,,OVC055,0.30,VWS V14.01,2013-12-11 01:01:00,
2013-12-10 20:06:00,30.7,25.0,30.28,NE,45,0.0,2.0,79,0.00,,OVC055,0.30,VWS V14.01,2013-12-11 01:06:00,
2013-12-10 20:11:00,30.6,24.9,30.28,NE,45,0.0,2.0,79,0.00,,OVC055,0.30,VWS V14.01,2013-12-11 01:11:00,
2013-12-10 20:16:00,30.6,25.2,30.28,NE,45,0.0,2.0,80,0.00,,OVC055,0.30,VWS V14.01,2013-12-11 01:16:00,
2013-12-10 20:21:00,30.3,25.2,30.29,NE,45,0.0,2.0,81,0.00,,OVC055,0.30,VWS V14.01,2013-12-11 01:21:00,
2013-12-10 20:26:00,30.0,24.6,30.29,NE,45,0.0,2.0,80,0.00,,OVC055,0.30,VWS V14.01,2013-12-11 01:26:00,
2013-12-10 20:30:00,29.9,24.8,30.29,NE,45,0.0,2.0,81,0.00,,OVC055,0.30,VWS V14.01,2013-12-11 01:30:00,
2013-12-10 20:31:00,29.7,24.9,30.29,NE,45,0.0,0.0,82,0.00,,OVC055,0.30,VWS V14.01,2013-12-11 01:31:00,
2013-12-10 20:36:00,29.5,25.0,30.29,NE,45,0.0,1.0,83,0.00,,OVC055,0.30,VWS V14.01,2013-12-11 01:36:00,
2013-12-10 20:41:00,29.3,24.8,30.30,NE,45,0.0,1.0,83,0.00,,OVC055,0.30,VWS V14.01,2013-12-11 01:41:00,
2013-12-10 20:46:00,29.2,25.3,30.30,NE,45,0.0,1.0,85,0.00,,OVC055,0.30,VWS V14.01,2013-12-11 01:46:00,
2013-12-10 20:51:00,29.0,25.4,30.30,NE,45,0.0,1.0,86,0.00,,OVC055,0.30,VWS V14.01,2013-12-11 01:51:00,
2013-12-10 20:56:00,28.8,25.1,30.30,NE,45,0.0,1.0,86,0.00,,OVC055,0.30,VWS V14.01,2013-12-11 01:56:00,
2013-12-10 21:00:00,28.8,25.1,30.30,NE,45,0.0,1.0,86,0.00,,OVC055,0.30,VWS V14.01,2013-12-11 02:00:00,
2013-12-10 21:01:00,28.8,25.4,30.30,NE,45,0.0,0.0,87,0.00,,OVC055,0.30,VWS V14.01,2013-12-11 02:01:00,
2013-12-10 21:06:00,28.8,25.4,30.31,NE,45,0.0,0.0,87,0.00,,OVC055,0.30,VWS V14.01,2013-12-11 02:06:00,
2013-12-10 21:11:00,28.6,25.5,30.31,NE,45,0.0,0.0,88,0.00,,OVC055,0.30,VWS V14.01,2013-12-11 02:11:00,
2013-12-10 21:16:00,28.5,25.7,30.31,NE,45,0.0,0.0,89,0.00,,OVC055,0.30,VWS V14.01,2013-12-11 02:16:00,
2013-12-10 21:21:00,28.4,25.6,30.31,NE,45,0.0,0.0,89,0.00,,OVC055,0.30,VWS V14.01,2013-12-11 02:21:00,
2013-12-10 21:26:00,28.3,25.5,30.32,NE,45,0.0,0.0,89,0.00,,OVC055,0.30,VWS V14.01,2013-12-11 02:26:00,
2013-12-10 21:30:00,28.3,25.5,30.32,NE,45,0.0,0.0,89,0.00,,OVC055,0.30,VWS V14.01,2013-12-11 02:30:00,
2013-12-10 21:31:00,28.2,25.4,30.32,NE,45,0.0,0.0,89,0.00,,OVC055,0.30,VWS V14.01,2013-12-11 02:31:00,
2013-12-10 21:36:00,28.1,25.5,30.32,NE,45,0.0,0.0,90,0.00,,OVC055,0.30,VWS V14.01,2013-12-11 02:36:00,
2013-12-10 21:41:00,28.0,25.7,30.32,NE,45,0.0,0.0,91,0.00,,OVC055,0.30,VWS V14.01,2013-12-11 02:41:00,
2013-12-10 21:46:00,28.0,25.7,30.32,NE,45,0.0,1.0,91,0.00,,OVC055,0.30,VWS V14.01,2013-12-11 02:46:00,
2013-12-10 21:51:00,28.0,25.5,30.32,NE,45,0.0,1.0,90,0.00,,OVC055,0.30,VWS V14.01,2013-12-11 02:51:00,
2013-12-10 21:56:00,28.0,25.7,30.32,NE,45,0.0,1.0,91,0.00,,OVC055,0.30,VWS V14.01,2013-12-11 02:56:00,
2013-12-10 22:00:00,28.0,25.7,30.31,NE,45,0.0,1.0,91,0.00,,OVC055,0.30,VWS V14.01,2013-12-11 03:00:00,
2013-12-10 22:01:00,28.0,25.5,30.32,NE,45,0.0,0.0,90,0.00,,OVC055,0.30,VWS V14.01,2013-12-11 03:01:00,
2013-12-10 22:06:00,28.0,25.7,30.32,NE,45,0.0,0.0,91,0.00,,OVC055,0.30,VWS V14.01,2013-12-11 03:06:00,
2013-12-10 22:11:00,28.0,25.5,30.32,NE,45,0.0,1.0,90,0.00,,OVC055,0.30,VWS V14.01,2013-12-11 03:11:00,
2013-12-10 22:16:00,28.1,25.5,30.32,NE,45,0.0,1.0,90,0.00,,OVC055,0.30,VWS V14.01,2013-12-11 03:16:00,
2013-12-10 22:21:00,28.0,25.5,30.32,NE,45,0.0,1.0,90,0.00,,OVC055,0.30,VWS V14.01,2013-12-11 03:21:00,
2013-12-10 22:26:00,28.0,25.5,30.32,NE,45,0.0,1.0,90,0.00,,OVC055,0.30,VWS V14.01,2013-12-11 03:26:00,
2013-12-10 22:30:00,27.9,25.4,30.32,NE,45,0.0,1.0,90,0.00,,OVC055,0.30,VWS V14.01,2013-12-11 03:30:00,
2013-12-10 22:31:00,27.8,25.2,30.32,NE,45,1.0,1.0,90,0.00,,OVC055,0.30,VWS V14.01,2013-12-11 03:31:00,
2013-12-10 22:36:00,27.7,25.4,30.32,NE,45,0.0,1.0,91,0.00,,OVC055,0.30,VWS V14.01,2013-12-11 03:36:00,
2013-12-10 22:41:00,27.6,25.3,30.33,NE,45,0.0,1.0,91,0.00,,OVC055,0.30,VWS V14.01,2013-12-11 03:41:00,
2013-12-10 22:46:00,27.4,25.1,30.33,NE,45,0.0,1.0,91,0.00,,OVC055,0.30,VWS V14.01,2013-12-11 03:46:00,
2013-12-10 22:51:00,27.3,25.3,30.33,NE,45,0.0,1.0,92,0.00,,OVC055,0.30,VWS V14.01,2013-12-11 03:51:00,
2013-12-10 22:56:00,27.4,25.4,30.33,NE,45,0.0,1.0,92,0.00,,OVC055,0.30,VWS V14.01,2013-12-11 03:56:00,
2013-12-10 23:00:00,27.4,25.4,30.33,NE,45,0.0,1.0,92,0.00,,OVC055,0.30,VWS V14.01,2013-12-11 04:00:00,
2013-12-10 23:01:00,27.4,25.4,30.33,NE,45,0.0,1.0,92,0.00,,OVC055,0.30,VWS V14.01,2013-12-11 04:01:00,
2013-12-10 23:06:00,27.5,25.2,30.34,NE,45,0.0,1.0,91,0.00,,OVC055,0.30,VWS V14.01,2013-12-11 04:06:00,
2013-12-10 23:11:00,27.6,25.3,30.34,NE,45,0.0,1.0,91,0.00,,OVC055,0.30,VWS V14.01,2013-12-11 04:11:00,
2013-12-10 23:16:00,27.7,25.7,30.34,NE,45,0.0,1.0,92,0.00,,OVC055,0.30,VWS V14.01,2013-12-11 04:16:00,
2013-12-10 23:21:00,27.6,25.3,30.34,NE,45,0.0,1.0,91,0.00,,OVC055,0.30,VWS V14.01,2013-12-11 04:21:00,
2013-12-10 23:26:00,27.6,25.3,30.34,NE,45,0.0,1.0,91,0.00,,OVC055,0.30,VWS V14.01,2013-12-11 04:26:00,
2013-12-10 23:30:00,27.5,25.2,30.34,NE,45,0.0,1.0,91,0.00,,OVC055,0.30,VWS V14.01,2013-12-11 04:30:00,
2013-12-10 23:31:00,27.4,25.1,30.34,NE,45,0.0,0.0,91,0.00,,OVC055,0.30,VWS V14.01,2013-12-11 04:31:00,
2013-12-10 23:36:00,27.3,25.0,30.34,NE,45,0.0,0.0,91,0.00,,OVC055,0.30,VWS V14.01,2013-12-11 04:36:00,
2013-12-10 23:41:00,27.1,24.8,30.35,NE,45,0.0,0.0,91,0.00,,OVC055,0.30,VWS V14.01,2013-12-11 04:41:00,
2013-12-10 23:46:00,26.9,24.9,30.35,NE,45,0.0,0.0,92,0.00,,OVC055,0.30,VWS V14.01,2013-12-11 04:46:00,
2013-12-10 23:51:00,26.7,24.7,30.35,NE,45,0.0,0.0,92,0.00,,OVC055,0.30,VWS V14.01,2013-12-11 04:51:00,
2013-12-10 23:56:00,26.5,24.5,30.35,NE,45,0.0,0.0,92,0.00,,OVC055,0.30,VWS V14.01,2013-12-11 04:56:00,